223  
ASUS41 KPHI 202310  
RWRPHI  
 
REGIONAL WEATHER ROUNDUP  
NATIONAL WEATHER SERVICE MOUNT HOLLY NJ  
700 PM EDT SAT SEP 20 2014  
 
NOTE: "FAIR" INDICATES FEW OR NO CLOUDS BELOW 12,000 FEET WITH NO  
SIGNIFICANT WEATHER AND/OR S TO VISIBILITY
.  
 
* = STATION DOES NOT REPORT PRECIPITATION (E.G. RAIN, SNOW, ETC.)  
OR FOG.
 
 
NJZ015>026-210000-  
SOUTHERN NEW JERSEY  
 
CITY SKY/WX TMP DP RH WIND PRES REMARKS
 
POMONA PTCLDY 70 63 78 SE8 30.12F  
RIO GRANDE* MOCLDY 70 61 73 SE9 30.13S  
MILLVILLE PTCLDY 71 62 73 SE8 30.11F  
WRIGHTSTOWN PTCLDY 70 62 76 SE3 30.10F  
MOUNT HOLLY CLEAR 70 60 70 SE3 30.10F  
TRENTON CLEAR 70 54 56 S8 30.11F  
 

 
NJZ001>014-210000-  
NORTHERN NEW JERSEY  
 
CITY SKY/WX TMP DP RH WIND PRES REMARKS
 
SUSSEX CLEAR 72 58 61 VRB5 30.09F  
ANDOVER* N/A 69 58 67 VRB5 30.10F  
MORRISTOWN CLEAR 72 59 64 S7 30.11F  
NEWARK PTCLDY 72 60 66 SE9 30.11F  
TETERBORO CLEAR 72 55 55 S10 30.10F  
CALDWELL CLEAR 71 55 56 S12G20 30.11F  
SOMERVILLE CLEAR 71 58 63 VRB6 30.09F  
ALLAIRE* PTCLDY 70 61 73 SE5 30.13F  
TOMS RIVER* PTCLDY 68 63 83 CALM 30.13F  
 

 
PAZ043-044-047-054-055-060>062-066>071-210000-  
EASTERN PENNSYLVANIA  
 
CITY SKY/WX TMP DP RH WIND PRES REMARKS
 
PHILADELPHIA PTCLDY 73 57 57 SE7 30.10F  
NORTH PHILA CLEAR 73 56 54 SE5 30.12F  
BLUE BELL CLEAR 72 59 64 CALM 30.10F  
DOYLESTOWN CLEAR 69 59 70 VRB7 30.10F  
QUAKERTOWN* CLEAR 72 59 64 S8 30.10F  
POTTSTOWN CLEAR 72 59 63 VRB5 30.11F  
LANCASTER CLEAR 72 59 63 SE9 30.08S  
COATESVILLE CLEAR 68 57 68 S3 30.11F  
READING CLEAR 73 57 57 S8 30.08S  
ALLENTOWN CLEAR 73 57 57 S7 30.09S  
MOUNT POCONO PTCLDY 64 55 72 S6 30.12F  
HAZLETON CLEAR 68 57 68 SE9 30.11F  
WILKES BARRE PTCLDY 70 56 61 S3 30.06F  
 

 
DEZALL-MDZ008-012-015-019-020-210000-  
DELAWARE AND EASTERN MARYLAND  
 
CITY SKY/WX TMP DP RH WIND PRES REMARKS
 
WILMINGTON CLEAR 72 62 71 S10 30.10F  
DOVER CLEAR 70 64 81 SE6 30.09F  
GEORGETOWN PTCLDY 71 63 75 E9 30.11S  
EASTON CLEAR 75 63 64 CALM 30.12F  
PATUXENT PTCLDY 73 59 61 E9 30.08S  
OCEAN CITY MOCLDY 71 66 84 E12 30.08F  
WALLOPS ISLAND CLOUDY 72 68 87 E13 30.09S  
CAMBRIDGE PTCLDY 73 63 68 SE5 30.08S  
SALISBURY MOCLDY 73 63 70 E5 30.09S  
 

 
PAZ001-021-NYZ056-072-MDZ011-DCZ001-210000-  
OTHER NEARBY LOCATIONS  
 
CITY SKY/WX TMP DP RH WIND PRES REMARKS
 
HARRISBURG PTCLDY 75 55 49 S12 30.04F  
STATE COLLEGE PTCLDY 70 59 68 S7 30.02F  
WILLIAMSPORT CLEAR 74 57 55 S15G24 30.00F  
BINGHAMTON PTCLDY 66 57 72 S9 30.03F  
NEW YORK CITY CLEAR 70 58 65 VRB3 30.15F  
BALTIMORE PTCLDY 73 59 61 CALM 30.07F  
WASHINGTON DC PTCLDY 78 55 44 SE6 30.07F  
 

 
 
CLICK HERE TO GO TO PREVIOUS BULLETINS.

The Nexlab PA Page
The Nexlab NJ Page
The Nexlab DE Page
The Nexlab MD Page Main Text Page